sat.trackr.live / text

‹ back to catalog

STARLINK-1997

NORAD 47592 · 2021-009AW

PAYLOAD ACTIVE UNKNOWN

§ Identity

Operator
Country
US
Launch date
2021-02-04
Launch site
AFETR
Launch vehicle
Mass (kg)
RCS (m²)

Purposes: comms

External: N2YO · Heavens-Above · Gunter

§ Orbital elements

Epoch: 2026-05-25T00:00:02.000160Z

Period
90.87 min
Inclination
53.0330°
Eccentricity
0.0004449
Mean motion
15.84639330 rev/d
Perigee alt
314.4 km
Apogee alt
320.3 km
Semi-major
6,695.5 km
B*
9.7598e-4
RAAN
340.5753°
Arg perigee
277.7145°
Mean anomaly
44.9799°
Rev number
595

§ Raw data

STARLINK-19971 47592U 21009AW  26145.00002315  .00235619  00000+0  97598-3 0  99942 47592  53.0330 340.5753 0004449 277.7145  44.9799 15.84639330  5957

JSON: /api/v1/satellites/47592 · /tle

For live sub-satellite position, see the globe view (requires WebGL).

§ Visibility from observer

Set your observer location to see the next 7 days of passes ≥ 10°. The values pass through the URL so the page stays shareable.

No JS? Fill the form by hand. The geolocation button needs JavaScript.